Showing default

ACCENTURE-1, 66767

Orbit data source: Space-Track

ACCENTURE-1, 66767 is a UK payload satellite in SSO that was launched on Fri, 28 Nov 2025 UTC via an FALCON 9 launch vehicle from the Air Force Western Test Range (AFWTR). Payload-class satellites include a variety of spacecraft equipped with specific instruments for various scientific and technological missions. These include communications satellites like Starlink; space stations such as the ISS; scientific satellites like the Hubble; Earth observation satellites from companies like Planet Labs, Umbra, and HawkEye 360; GPS; miniature CubeSats for education and research; and military/defense satellites.

Loading next visibility...
Identifier
66767, 2025-276DF
Orbit
SSO
Country
Flag of UKUK
Related business
Manufacturer
Open Cosmos
Mission
Operational Commercial Communications
Bus & Motor
CUBESAT 6U, Unknown motor
Mass
12 kg wet, 12 kg dry
Launch date (UTC)
2025-11-28 (6 months ago)
Launch vehicle
FALCON 9
Launch site
Air Force Western Test Range (AFWTR)
Object type
Payload
Rocket body
Debris
Shape & HBR
Box, 0.2 m
Radar Cross Section
0.100 m², Medium (>0.1 m² and < 1m²)

Expand to show TLE details & history
Last TLE update: 6 days ago

TLE from 6 days ago
0 ACCENTURE-1
1 66767U 25276DF  26155.09790002  .00004713  00000-0  22276-3 0  9997
2 66767  97.4162 228.9265 0001306 112.7840 247.3533 15.19876350 28440
Epoch: 2026-06-04T02:20Z
TLE epoch observation values (Epoch: 2026-06-04T02:20:58.561Z)
Latitude
-0.00005°
Longitude
-58.86455°
Altitude
509.65 km
Speed
7.609 km/s
True Right ascension
15h 15m 42s
True Declination
0° 00' 00"
Sunlit
Object was in full shadow at epoch
Visualization orbit readout
Latitude
Unknown
Longitude
Unknown
Altitude
Unknown
Speed
Unknown
Apparent Right ascension
Unknown
Apparent Declination
Unknown
Sunlit
N/A
Visualization observer readout
Local Sidereal Time
13:17:14
Azimuth
Unknown
Elevation
Unknown
Doppler factor
Unknown
Orbital elements
Apogee altitude
504.079 km
Perigee altitude
502.282 km
Semi-major axis
6,881.317 km
Eccentricity
0.00013
Inclination
97.4162°
RAAN
228.9265°
Arg. of periapsis
112.784°
True anomaly
247.33949°
Mean anomaly
247.3533°
Eccentric anomaly
247.34639°
Mean motion
3.80221 °/min
Orbital period
94.68 mins
BSTAR
0.00022276
Loading maneuver chart data...
Computing Atmospheric mass density...
Loading historical data...
Loading historical data...
Loading historical data...
Loading historical data...
Loading historical data...
Loading historical data...
Loading historical data...

Documentation

Showing up to 5 results
|